Terminal Aerodrome Forecast
Issued by NWS Wilmington, OH

Current Version | Previous Version | Text Only | Print | Product List | Glossary Off
Versions: 1 2 3 4 5 6 7 8 9 10 11 12 13 14 15 16 17 18 19 20 21 22

000
FTUS41 KILN 211733 AAB
TAFCVG
TAF AMD
KCVG 211733Z 2118/2224 02007KT P6SM FEW020 SCT250
     FM212000 35008KT P6SM BKN250
     FM212300 34012KT P6SM SCT060 OVC140
     FM220600 36012KT P6SM FEW250
     FM221400 04011KT P6SM SKC=

USA.gov is the U.S. government's official web portal to all federal, state and local government web resources and services.